Regional Weather Roundup
Issued by NWS

Home | Current Version | Previous Version | Graphics & Text | Print | Product List | Glossary On
Versions: 1 2 3 4 5 6 7 8 9 10 11 12 13 14 15 16 17 18 19 20 21 22 23 24 25 26 27 28 29 30 31 32 33 34 35 36 37 38 39 40 41 42 43 44 45 46 47 48 49 50
000
ASUS43 KFSD 180902
RWRSD

WEATHER ROUNDUP FOR SOUTH DAKOTA
NATIONAL WEATHER SERVICE SIOUX FALLS SD
300 AM CST WED JAN 18 2017

NOTE: "FAIR" INDICATES FEW OR NO CLOUDS BELOW 12,000 FEET WITH NO
SIGNIFICANT WEATHER AND/OR OBSTRUCTIONS TO VISIBILITY.


SDZ001>005-009-010-012>017-181000-
NORTHWEST AND NORTH CENTRAL SOUTH DAKOTA

CITY           SKY/WX    TMP DP  RH WIND       PRES   REMARKS
BUFFALO          N/A     36  22  56 W9        29.74F
FAITH            N/A     23  17  78 SW12      29.83S WCI  12
MOBRIDGE       CLOUDY    17  10  74 SE10      29.79S WCI   5
$$

SDZ012>016-024>037-041>051-057-063-072>074-181000-
SOUTHWEST AND SOUTH CENTRAL SOUTH DAKOTA

CITY           SKY/WX    TMP DP  RH WIND       PRES   REMARKS
RAPID CTY ARPT CLOUDY    31  19  61 NW7       29.85S WCI  24
PIERRE         CLOUDY    18  12  77 CALM      29.87R
CUSTER         CLOUDY    32  16  51 W7        29.90S WCI  26
ELLSWORTH AFB  CLOUDY    32  19  59 W8        29.84S WCI  25
PHILIP         CLOUDY    27  18  69 W12       29.86F WCI  17
PINE RIDGE     CLOUDY    24  14  65 SW8       29.91R WCI  15
SPEARFISH      FAIR      37  21  52 CALM      29.86R
WINNER         FAIR      33  21  61 SW9       29.89R WCI  25
$$

SDZ004>011-016>023-039-040-181000-
NORTHEAST SOUTH DAKOTA

CITY           SKY/WX    TMP DP  RH WIND       PRES   REMARKS
ABERDEEN       CLOUDY    16  11  80 S10       29.85S WCI   4
WATERTOWN      CLOUDY    19  17  92 S8        29.87R WCI   9
BROOKINGS      CLOUDY    23  21  92 S13       29.89R WCI  11
SISSETON         N/A     36  23  59 W18G26    29.77F
$$

SDZ017-020-022-023-036>040-048>070-181000-
SOUTHEAST SOUTH DAKOTA

CITY           SKY/WX    TMP DP  RH WIND       PRES   REMARKS
SIOUX FALLS    CLOUDY    31  28  89 SW5       29.94R WCI  26
HURON          CLOUDY    21  21 100 SE3       29.90R
CHAMBERLAIN    CLOUDY    19  16  90 CALM      29.89R
MITCHELL       CLOUDY    21  19  92 S8        29.92R WCI  11
YANKTON        CLOUDY    34  27  75 S13       29.94S WCI  25
$$

ABBREVIATIONS USED IN REMARKS
   TC - TEMPERATURE IN CELSIUS
  WCI - WIND CHILL INDEX
   HX - HEAT INDEX
  VSB - VISIBILITY




USA.gov is the U.S. government's official web portal to all federal, state and local government web resources and services.